TNS 0-2 (42914 NORAD) Tracking and Keplerian Element Data

This shows tracking and keplerian element data for the satellite.

Feedback or suggestion? Click here.




ElementValue
Catalog42914
NameTNS 0-2
Epoch Orbit9535
Epoch Day108.64053623
Epoch Year2019
RAAN247.0258
Inclination51.6353
Eccentricity0.0005431
Argument of Perigee294.6361
Mean Anonmoly65.4074
Mean Motion15.7884388
Decay Rate0.00040907
L11 42914U 98067ND 19108.64053623 .00040907 00000-0 22948-3 0 9996
L22 42914 51.6353 247.0258 0005431 294.6361 65.4074 15.78843880 95357

Live tracking and technical data element details for TNS 0-2 (NORAD 42914). TNS 0-2 can be tracked NOW for your location showing map with azimuth and elevation plus other details from your city location.

Track the satellite on the map from your city or location and see movement details for azimuth, elevation, latitude, longitude, range, height, and movement on the map or in text.







IsCatalogInMostPopularTable: catalog: 42914, numindb: 202
Update: records affected: 1



GetName: 42914 TNS 0-2

Hit Count: updated at: Thu, 25 Apr 2019 20:09:04 GMT